Location: Unspecified
(0.0000°N, 0.0000°E)
Time: 00:14:52
(UTC+00:00)

Vanguard 1 Rocket - All Passes

Search period start: 13 December 2018 00:00
Search period end: 23 December 2018 00:00
Orbit: 650 x 4226 km, 34.3° (Epoch: 11 December)

Date Brightness Start Highest point End Pass type
(mag) Time Alt. Az. Time Alt. Az. Time Alt. Az.
13 Dec - 00:23:32 10° N 00:30:02 22° NE 00:39:57 10° E visible
13 Dec - 02:45:35 10° NW 02:57:03 83° NE 03:19:35 10° SE visible
13 Dec - 05:13:11 10° W 05:29:18 44° SSW 05:53:25 10° SE visible
13 Dec - 07:50:21 10° WSW 08:08:28 24° SSW 08:26:34 10° SE daylight
13 Dec - 10:32:58 10° SW 10:50:03 23° S 11:02:16 10° SE daylight
13 Dec - 13:07:38 10° SW 13:24:27 43° SSE 13:33:23 10° E daylight
13 Dec - 15:40:33 10° WSW 15:52:02 54° NW 15:58:09 10° NE daylight
14 Dec - 01:35:13 10° NW 01:44:30 54° NE 02:02:33 10° ESE visible
14 Dec - 04:00:18 10° WNW 04:13:55 59° SSW 04:37:59 10° SE visible
14 Dec - 06:32:43 10° WSW 06:50:08 29° SSW 07:11:09 10° SE daylight
14 Dec - 09:14:37 10° SW 09:32:17 21° S 09:46:50 10° SE daylight
14 Dec - 11:52:03 10° SW 12:10:13 33° SSE 12:21:02 10° E daylight
14 Dec - 14:25:08 10° SW 14:40:32 85° SE 14:48:02 10° NE daylight
14 Dec - 17:01:05 10° WNW 17:05:41 15° NW 17:09:13 10° N daylight
15 Dec - 00:25:46 10° NNW 00:32:48 29° NE 00:44:35 10° E visible
15 Dec - 02:48:41 10° WNW 02:59:53 80° SW 03:22:03 10° SE visible
15 Dec - 05:17:24 10° W 05:33:00 36° SSW 05:55:41 10° SE visible
15 Dec - 07:55:45 10° SW 08:13:25 22° S 08:30:38 10° SE daylight
15 Dec - 10:35:45 10° SW 10:54:32 27° SSE 11:07:19 10° ESE daylight
15 Dec - 13:09:42 10° SW 13:27:55 57° SSE 13:37:07 10° ENE daylight
15 Dec - 15:43:59 10° WSW 15:54:46 38° NW 16:00:52 10° NNE daylight
15 Dec - 23:18:42 10° NNE 23:21:17 12° NE 23:24:20 10° ENE night (unlit)
16 Dec - 01:38:02 10° NW 01:47:08 69° NE 02:05:36 10° ESE visible
16 Dec - 04:04:00 10° W 04:17:16 48° SSW 04:40:06 10° SE visible
16 Dec - 06:37:54 10° WSW 06:54:39 25° SSW 07:14:17 10° SE daylight
16 Dec - 09:18:34 10° SW 09:37:12 23° S 09:52:02 10° SE daylight
16 Dec - 11:54:05 10° SW 12:14:01 41° SSE 12:25:14 10° E daylight
16 Dec - 14:27:50 10° WSW 14:43:27 73° NW 14:51:08 10° NE daylight
17 Dec - 00:28:14 10° NNW 00:35:27 39° NE 00:48:34 10° ESE visible
17 Dec - 02:52:00 10° WNW 03:02:56 65° SSW 03:24:19 10° SE visible
17 Dec - 05:22:00 10° WSW 05:37:01 30° SSW 05:58:07 10° SE visible
17 Dec - 08:00:46 10° SW 08:18:30 22° S 08:35:20 10° SE daylight
17 Dec - 10:38:10 10° SW 10:58:43 32° SSE 11:12:04 10° ESE daylight
17 Dec - 13:11:56 10° SW 13:31:09 73° SE 13:40:34 10° ENE daylight
17 Dec - 15:47:55 10° W 15:57:27 27° NW 16:03:19 10° NNE daylight
17 Dec - 23:19:44 10° N 23:24:14 17° NE 23:30:28 10° E visible
18 Dec - 01:41:02 10° NW 01:49:56 87° NE 02:08:19 10° SE visible
18 Dec - 04:08:03 10° W 04:20:55 38° SSW 04:42:12 10° SE visible
18 Dec - 06:43:12 10° SW 06:59:29 23° S 07:17:59 10° SE daylight
18 Dec - 09:21:51 10° SW 09:41:52 26° SSE 09:57:14 10° ESE daylight
18 Dec - 11:56:08 10° SW 12:17:33 52° SSE 12:29:06 10° ENE daylight
18 Dec - 14:30:50 10° WSW 14:46:12 55° NW 14:54:01 10° NE daylight
19 Dec - 00:30:55 10° NNW 00:38:06 52° NE 00:52:02 10° ESE visible
19 Dec - 02:55:35 10° WNW 03:06:15 51° SSW 03:26:26 10° SE visible
19 Dec - 05:26:57 10° WSW 05:41:22 26° SSW 06:00:52 10° SE visible
19 Dec - 08:05:08 10° SW 08:23:33 23° S 08:40:30 10° SE daylight
19 Dec - 10:40:24 10° SW 11:02:36 39° SSE 11:16:26 10° E daylight
19 Dec - 13:14:20 10° SW 13:34:08 89° NW 13:43:46 10° NE daylight
19 Dec - 15:52:29 10° W 16:00:12 20° NW 16:05:29 10° N daylight
19 Dec - 23:21:44 10° N 23:27:01 25° NE 23:35:13 10° E visible
20 Dec - 01:44:15 10° WNW 01:52:56 73° SW 02:10:46 10° SE visible
20 Dec - 04:12:25 10° WSW 04:24:49 31° SSW 04:44:22 10° SE visible
20 Dec - 06:48:20 10° SW 07:04:30 22° S 07:22:22 10° SE daylight
20 Dec - 09:24:40 10° SW 09:46:12 31° SSE 10:02:11 10° ESE daylight
20 Dec - 11:58:15 10° SW 12:20:50 65° SSE 12:32:40 10° ENE daylight
20 Dec - 14:34:14 10° WSW 14:48:50 41° NW 14:56:43 10° NNE daylight
21 Dec - 00:33:47 10° NW 00:40:51 71° NE 00:55:06 10° ESE visible
21 Dec - 02:59:27 10° W 03:09:48 40° SSW 03:28:28 10° SE visible
21 Dec - 05:32:07 10° SW 05:46:01 23° S 06:04:05 10° SE visible
21 Dec - 08:08:51 10° SW 08:28:23 25° SSE 08:45:50 10° ESE daylight
21 Dec - 10:42:32 10° SW 11:06:12 48° SSE 11:20:28 10° E daylight
21 Dec - 13:17:00 10° WSW 13:36:54 71° NW 13:46:46 10° NE daylight
21 Dec - 15:58:03 10° WNW 16:03:07 14° NW 16:07:03 10° NNW daylight
21 Dec - 23:24:08 10° NNW 23:29:43 35° NE 23:39:14 10° ESE visible
22 Dec - 01:47:42 10° WNW 01:56:10 56° SSW 02:13:01 10° SE visible
22 Dec - 04:17:10 10° WSW 04:29:00 26° SSW 04:46:42 10° SE visible
22 Dec - 06:53:00 10° SW 07:09:35 22° S 07:27:24 10° SE daylight
22 Dec - 09:27:08 10° SW 09:50:12 37° SSE 10:06:47 10° E daylight
22 Dec - 12:00:30 10° SW 12:23:51 80° SE 12:35:59 10° ENE daylight
22 Dec - 14:38:07 10° W 14:51:28 31° NW 14:59:13 10° NNE daylight
22 Dec - 22:16:07 10° NNE 22:18:52 13° NE 22:22:12 10° ENE night (unlit)
